Location: Brantley
(31.5822°N, 86.2569°W)
Time: 03:14:53
(UTC+00:00)

Transit 2A Rocket - Pass Details

Date: 16 February 2026
Orbit: 583 x 900 km, 66.7° (Epoch: 5 March)

Event Time Altitude Azimuth Distance (km) Brightness Sun altitude
Rises 20:04:12 0° 157° (SSE) 3,413 8.7 37.0°
Reaches altitude 10° 20:07:49 10° 134° (SE) 2,524 7.8 36.5°
Maximum altitude 20:10:52 15° 103° (ESE) 2,243 7.3 36.1°
Drops below altitude 10° 20:13:57 10° 71° (ENE) 2,571 7.4 35.7°
Sets 20:17:40 0° 49° (NE) 3,518 7.9 35.1°
